Regional Weather Roundup
Issued by NWS

Home | Current Version | Previous Version | Graphics & Text | Print | Product List | Glossary Off
Versions: 1 2 3 4 5 6 7 8 9 10 11 12 13 14 15 16 17 18 19 20 21 22 23 24 25 26 27 28 29 30 31 32 33 34 35 36 37 38 39 40 41 42 43 44 45 46 47 48 49 50

000
ASUS43 KMKX 280059
RWRWI

WISCONSIN REGIONAL WEATHER ROUNDUP
NATIONAL WEATHER SERVICE MILWAUKEE/SULLIVAN WI
800 PM CDT FRI MAR 27 2015

NOTE: "FAIR" INDICATES FEW OR NO CLOUDS BELOW 12,000 FEET WITH NO
SIGNIFICANT WEATHER AND/OR OBSTRUCTIONS TO VISIBILITY.

WIZ001-002-006>008-014>016-023>028-280200-
NORTHWEST WISCONSIN

CITY           SKY/WX    TMP DP  RH WIND       PRES   REMARKS
SUPERIOR ARPT  PTCLDY    26  13  57 E5        30.18R WCI  20
ASHLAND        CLEAR     19   8  62 NE5       30.20R WCI  12
HAYWARD        CLEAR     29   6  38 CALM      30.13R
SIREN          PTCLDY    31   0  26 CALM      30.14S
CUMBERLAND     CLEAR     28  10  47 SE3       30.13S
RICE LAKE      CLEAR     31   3  30 CALM      30.16S
CHETEK         CLEAR     28  10  45 CALM      30.15S
LADYSMITH      CLEAR     30   9  40 CALM      30.15S
EAU CLAIRE     NOT AVBL
MENOMONIE      PTCLDY    29   9  43 SE3       30.15S
NEW RICHMOND   PTCLDY    32   5  32 SE3       30.15S
OSCEOLA        PTCLDY    33   0  24 CALM      30.18R
$$

WIZ003>005-009-010-017-018-280200-
NORTH CENTRAL WISCONSIN

CITY           SKY/WX    TMP DP  RH WIND       PRES   REMARKS
MANITOWISH WTR CLEAR     26   8  46 CALM      30.12R
ARBOR VITAE    CLEAR     27   2  34 CALM      30.12R
WOODRUFF       CLEAR     27   2  34 CALM      30.12R
RHINELANDER    CLEAR     25  -1  32 CALM      30.13R
EAGLE RIVER    CLEAR     24  -6  27 NE3       30.12R
LAND O LAKES   CLEAR     23  -1  34 N3        30.13S
PHILLIPS       PTCLDY    27   6  41 CALM      30.11S
TOMAHAWK       CLEAR     26   2  35 CALM      30.13R
MEDFORD        CLEAR     26  12  54 S6        30.12S WCI  20
MERRILL        CLEAR     28   2  32 CALM      30.13R
$$

WIZ029-030-035-036-043>047-280200-
CENTRAL WISCONSIN

CITY           SKY/WX    TMP DP  RH WIND       PRES   REMARKS
WAUSAU         CLEAR     28   4  35 W3        30.13R
MOSINEE        NOT AVBL
MARSHFIELD     CLEAR     28  10  46 W3        30.14S
STEVENS POINT  CLEAR     26   3  37 CALM      30.16R
WAUPACA        CLEAR     30   0  27 CALM      30.17S
WAUTOMA        NOT AVBL
WISC RAPIDS    CLEAR     25   6  44 NW3       30.17S
CAMP DOUGLAS   CLEAR     28   7  42 E3        30.16R
$$

WIZ011>013-019>022-031-037>040-048>050-280200-
NORTHEAST WISCONSIN

CITY           SKY/WX    TMP DP  RH WIND       PRES   REMARKS
ANTIGO         CLEAR     23   9  55 CALM      30.13R
SHAWANO        CLEAR     27  10  48 SE7       30.17R WCI  20
OCONTO         CLEAR     21  10  61 E3        30.20S
STURGEON BAY   CLEAR     21   3  45 NE5       30.22R WCI  15
GREEN BAY      CLEAR     24  10  55 NE5       30.20R WCI  18
MANITOWOC      NOT AVBL
APPLETON       CLEAR     27   3  36 VRB3      30.17S
CLINTONVILLE   CLEAR     28   3  34 E5        30.16S WCI  23
OSHKOSH        CLEAR     25  10  53 CALM      30.18R
$$

WIZ032>034-041-042-053>061-280200-
SOUTHWEST WISCONSIN

CITY           SKY/WX    TMP DP  RH WIND       PRES   REMARKS
LA CROSSE      CLEAR     31   8  38 CALM      30.17S
SPARTA         CLEAR     28   7  39 CALM      30.17R
VIROQUA        CLEAR     29  11  48 W5        30.14R WCI  24
BOSCOBEL       CLEAR     30   9  41 CALM      30.18R
PRAIRIE DU CHI CLEAR     30  10  44 CALM      30.18S
PLATTEVILLE    CLEAR     28  12  51 W5        30.15S WCI  23
$$

WIZ056-057-062-063-064-067-068-280200-
SOUTH CENTRAL WISCONSIN

CITY           SKY/WX    TMP DP  RH WIND       PRES   REMARKS
REEDSBURG      CLEAR     30   4  33 CALM      30.15S
BARABOO/DELLS  CLEAR     29   5  36 CALM      30.15S
LONE ROCK      NOT AVBL
MINERAL POINT  CLEAR     30  10  43 CALM      30.14S
MADISON        CLEAR     26   6  42 E8        30.16R WCI  18
MIDDLETON      CLEAR     31  15  52 CALM      30.16S
WATERTOWN      CLEAR     24   6  46 NE7       30.17R WCI  16
MONROE         CLEAR     30   9  40 CALM      30.14S
JANESVILLE     CLEAR     27   7  43 NE8       30.16S WCI  18
$$

WIZ051-052-058>065-066-070>072-280200-
SOUTHEAST WISCONSIN

CITY           SKY/WX    TMP DP  RH WIND       PRES   REMARKS
MILWAUKEE      PTCLDY    23  11  60 N8        30.20R WCI  14
WAUKESHA       CLEAR     25   5  42 NE10      30.19R WCI  15
MILWAUKEE/TIMM CLEAR     23  10  58 NE7       30.20R WCI  15
RACINE         CLEAR     23  12  62 NE12      30.21R WCI  12
BURLINGTON     CLEAR     22  13  66 E7        30.19R WCI  14
KENOSHA        CLEAR     23  13  65 NE8       30.19R WCI  14
FOND DU LAC    CLEAR     25   7  46 CALM      30.18S
SHEBOYGAN      CLEAR     20  11  68 NE3       30.20R
WEST BEND      CLEAR     23  10  58 E8        30.18R WCI  14
JUNEAU         CLEAR     24   7  48 NE5       30.18S WCI  19
$$

LSZ147-162-280200-
LAKE SUPERIOR

STATION/POSITION TIME  TEMP    WIND        PRES    WAVE
                       AIR SEA DIR/SP/G            HT/PER
                 (UTC) (F)     (DEG/KT/KT) (MB)    (FT/S)
DEVILS ISLAND    0000   23     130/  7/  9 1024.0S
PORT WING        0000   28      40/  8/ 10 1022.4
SAXON HARBOR     2300   24      40/  9/ 11 1022.4F
$$

LMZ867-665-643>646-280200-
LAKE MICHIGAN

STATION/POSITION TIME  TEMP    WIND        PRES    WAVE
                       AIR SEA DIR/SP/G            HT/PER
                 (UTC) (F)     (DEG/KT/KT) (MB)    (FT/S)
NORTHPORT PIER   0017   22      30/  8/ 12 1023.0R
KEWAUNEE LAKESHO 0000   24      60/  7/ 10 1021.8R
SHEBOYGAN LAKESH 0000   24      30/ 14/ 16 1023.8R
PORT WASHINGTON  0040   25      20/  5/ 10 1023.4R
MILWAUKEE LAKESH 0000   25      30/ 14/ 18   N/A
KENOSHA   LAKESH 0000   25      20/ 17/ 20 1022.0R
$$

TC  - TEMPERATURE IN CELSIUS
VSB - VISIBILITY IN STATUTE MILES
WCI - WIND CHILL INDEX
HX  - HEAT INDEX



USA.gov is the U.S. government's official web portal to all federal, state and local government web resources and services.